Regional Weather Roundup
Issued by NWS

Home | Current Version | Previous Version | Graphics & Text | Print | Product List | Glossary Off
Versions: 1 2 3 4 5 6 7 8 9 10 11 12 13 14 15 16 17 18 19 20 21 22 23 24 25 26 27 28 29 30 31 32 33 34 35 36 37 38 39 40 41 42 43 44 45 46 47 48 49 50

000
ASUS43 KMKX 210700
RWRWI

WISCONSIN REGIONAL WEATHER ROUNDUP
NATIONAL WEATHER SERVICE MILWAUKEE/SULLIVAN WI
100 AM CST SAT JAN 21 2017

NOTE: "FAIR" INDICATES FEW OR NO CLOUDS BELOW 12,000 FEET WITH NO
SIGNIFICANT WEATHER AND/OR OBSTRUCTIONS TO VISIBILITY.

WIZ001-002-006>008-014>016-023>028-210800-
NORTHWEST WISCONSIN

CITY           SKY/WX    TMP DP  RH WIND       PRES   REMARKS
SUPERIOR ARPT  CLOUDY    35  35 100 E5        29.57F FOG     WCI  31
ASHLAND        CLOUDY    35  34  96 E3        29.59F
HAYWARD        CLOUDY    35  33  92 SE6       29.56F FOG     WCI  30
SIREN          CLOUDY    35  34  99 SE5       29.56S FOG     WCI  31
CUMBERLAND     FOG       32  32 100 SE7       29.55F VSB 1/4 WCI  26
RICE LAKE      FOG       34  34  99 SE5       29.57F VSB 1   WCI  30
CHETEK         CLOUDY    34  34 100 SE5       29.56F FOG     WCI  30
LADYSMITH      CLOUDY    35  34  97 E7        29.58F FOG     WCI  29
EAU CLAIRE     CLOUDY    35  34  96 E6        29.55F FOG     WCI  30
MENOMONIE        N/A    N/A N/A N/A MISG        N/A
NEW RICHMOND   CLOUDY    34  34 100 E3        29.54F FOG
OSCEOLA        CLOUDY    35  35 100 SE5       29.57F FOG     WCI  31
$$

WIZ003>005-009-010-017-018-210800-
NORTH CENTRAL WISCONSIN

CITY           SKY/WX    TMP DP  RH WIND       PRES   REMARKS
MANITOWISH WTR CLOUDY    33  33 100 SE6       29.59F WCI  27
ARBOR VITAE    CLOUDY    35  35  96 SE6       29.60F FOG     WCI  30
WOODRUFF       CLOUDY    35  35  96 SE6       29.60F FOG     WCI  30
RHINELANDER    CLOUDY    34  34 100 SE8       29.60F FOG     WCI  27
EAGLE RIVER    CLOUDY    33  33 100 SE7       29.61S FOG     WCI  26
LAND O LAKES   CLOUDY    33  33 100 SE6       29.62F FOG     WCI  28
PHILLIPS       CLOUDY    33  33 100 SE5       29.57F WCI  28
TOMAHAWK       CLOUDY    32  32  99 CALM      29.60F FOG
MEDFORD        FOG       32  32  99 SE5       29.57F VSB 3/4 WCI  28
MERRILL        CLOUDY    33  33 100 SE5         N/A  FOG     WCI  29
$$

WIZ029-030-035-036-043>047-210800-
CENTRAL WISCONSIN

CITY           SKY/WX    TMP DP  RH WIND       PRES   REMARKS
WAUSAU         CLOUDY    33  33 100 E6        29.59F FOG     WCI  28
MOSINEE        FOG       32  32 100 E6        29.60F VSB 1/2 WCI  26
MARSHFIELD     FOG       33  33 100 E6        29.56F VSB 1/4 WCI  28
STEVENS POINT  FOG       32  32 100 E8        29.60F VSB 1/4 WCI  25
WAUPACA        DRZL/FOG  36  34  94 CALM      29.63F VSB 1/2
WAUTOMA        LGT RAIN  34  34 100 NE5       29.60F FOG     WCI  30
WISC RAPIDS    FOG       34  34 100 E6        29.59F VSB 3/4 WCI  29
CAMP DOUGLAS   FOG       34  34 100 E5        29.57F VSB 1/2 WCI  30
$$

WIZ011>013-019>022-031-037>040-048>050-210800-
NORTHEAST WISCONSIN

CITY           SKY/WX    TMP DP  RH WIND       PRES   REMARKS
ANTIGO         CLOUDY    32  32 100 E7        29.61F FOG     WCI  25
SHAWANO        FOG       34  33  95 NE3       29.65F VSB 1/2
OCONTO         CLOUDY    32  32  99 E3        29.66F
STURGEON BAY   CLOUDY    34  33  96 SE3       29.67F FOG
GREEN BAY      LGT RAIN  35  35 100 NE7       29.65F VSB 1/4 WCI  29
MANITOWOC      NOT AVBL
APPLETON       FOG       34  34 100 E3        29.61F VSB 3/4
CLINTONVILLE   FOG       32  32 100 E5        29.64F VSB 1/2 WCI  27
OSHKOSH        FOG       34  33  96 E6        29.61F VSB 1/4 WCI  29
$$

WIZ032>034-041-042-053>061-210800-
SOUTHWEST WISCONSIN

CITY           SKY/WX    TMP DP  RH WIND       PRES   REMARKS
LA CROSSE      CLOUDY    39  35  86 SE6       29.55F FOG     WCI  35
SPARTA         CLOUDY    34  34 100 E3        29.57F FOG
VIROQUA        CLOUDY    34  34 100 E8        29.53F VSB 1/4 WCI  27
BOSCOBEL       CLOUDY    37  36  96 NE6       29.55F FOG     WCI  32
PRAIRIE DU CHI CLOUDY    36  35  96 CALM      29.53F FOG
PLATTEVILLE    CLOUDY    36  36 100 E10       29.54F VSB 1/4 WCI  29
$$

WIZ056-057-062-063-064-067-068-210800-
SOUTH CENTRAL WISCONSIN

CITY           SKY/WX    TMP DP  RH WIND       PRES   REMARKS
REEDSBURG      FOG       35  35 100 E5        29.57F VSB 3/4 WCI  31
BARABOO/DELLS  FOG       34  34  99 NE3       29.57F VSB<1/4
LONE ROCK      CLOUDY    36  35  96 E5        29.57F FOG     WCI  32
MINERAL POINT  FOG       37  37 100 E7        29.54F VSB 1/4 WCI  32
MADISON        FOG       36  35  96 E5        29.58F VSB 1/2 WCI  32
MIDDLETON      CLOUDY    37  37 100 E3        29.58F VSB 1/4
WATERTOWN      FOG       36  36 100 E6        29.59F VSB 3/4 WCI  31
MONROE         FOG       36  36 100 E5        29.55F VSB 1/2 WCI  32
JANESVILLE     FOG       37  37 100 E5        29.57F VSB 3/4 WCI  34
$$

WIZ051-052-058>065-066-070>072-210800-
SOUTHEAST WISCONSIN

CITY           SKY/WX    TMP DP  RH WIND       PRES   REMARKS
MILWAUKEE      FOG       39  37  92 E6        29.61F VSB 1/4 WCI  35
WAUKESHA       SNOW      34  34 100 E3        29.61F VSB 1/4
MILWAUKEE/TIMM RAIN      36  34  93 CALM      29.63F VSB 1/4
RACINE         FOG       38  37  97 E5        29.62F VSB 1/4 WCI  34
KENOSHA        FOG       38  37  97 E7        29.60F VSB<1/4 WCI  33
FOND DU LAC    FOG       35  33  92 CALM      29.61F VSB 3/4
SHEBOYGAN      FOG       35  34  96 E3        29.63F VSB 1/4
WEST BEND      FOG       34  34 100 E3        29.62F VSB 1/4
JUNEAU         FOG       35  35 100 E8        29.60F VSB<1/4 WCI  28
$$

LSZ147-162-210800-
LAKE SUPERIOR

STATION/POSITION TIME  TEMP    WIND        PRES    WAVE
                       AIR SEA DIR/SP/G            HT/PER
                 (UTC) (F)     (DEG/KT/KT) (MB)    (FT/S)
DEVILS ISLAND    0600   35     120/  7/  7 1003.4F
PORT WING        0630   34      50/  3/  3 1002.4F
SAXON HARBOR     0630   33      CALM  /  2 1002.7S
$$

LMZ867-665-643>646-210800-
LAKE MICHIGAN

STATION/POSITION TIME  TEMP    WIND        PRES    WAVE
                       AIR SEA DIR/SP/G            HT/PER
                 (UTC) (F)     (DEG/KT/KT) (MB)    (FT/S)
NORTHPORT PIER   0630   33        CALM     1005.4S
SISTER BAY       0620   33        CALM       N/A
KEWAUNEE LAKESHO 0630   35      30/  1/  3 1004.3F
SHEBOYGAN LAKESH 0600   36     100/  7/  7 1004.6F
PORT WASHINGTON  0630   36      40/  5/  6 1004.7F
KENOSHA   LAKESH 0600   36      CALM  /  3 1003.7
$$

TC  - TEMPERATURE IN CELSIUS
VSB - VISIBILITY IN STATUTE MILES
WCI - WIND CHILL INDEX
HX  - HEAT INDEX





USA.gov is the U.S. government's official web portal to all federal, state and local government web resources and services.